Wind_Speed
35 34 34 36 37 37 38 39 39 40 41 41 41 41 41 41 41 41 44 45 46 48 44 43 47 43 37 35 34 37 40 39 38 38 38 39 39 38 38 39 40 40 40 40 40 40 42 43 44 45 45 45 45 45 45 44 44 45 46 47 48 48 49 49 49 50 51 52 52 53 53 53 54 56 57 58 59 60 61 63 65 67 69 72 75 77
37 35 34 37 39 38 40 40 41 41 42 43 43 43 43 43 44 44 45 46 47 50 48 46 49 45 40 38 36 37 39 40 40 38 39 40 39 38 39 40 41 42 42 42 43 43 44 44 45 46 46 46 46 46 46 46 46 47 47 48 49 49 50 51 51 52 52 52 53 53 53 54 56 57 57 58 59 60 63 65 67 70 72 75 78 80
39 36 35 39 40 40 42 42 42 43 44 45 45 45 45 44 46 47 46 47 49 51 51 49 51 48 43 40 37 38 40 40 39 38 40 41 39 38 38 39 41 42 43 44 44 45 46 46 46 45 45 45 46 46 47 47 47 48 48 48 49 50 51 52 53 53 52 53 54 54 54 56 57 57 57 58 59 61 63 66 68 71 74 77 81 83
41 38 38 40 41 42 43 43 44 45 47 47 46 47 46 45 48 50 49 49 49 51 53 53 54 51 46 41 36 39 43 40 39 39 41 41 38 37 37 39 41 43 43 44 44 45 46 47 46 44 43 43 44 46 47 47 47 48 48 49 50 51 53 53 53 53 53 54 55 55 56 57 58 58 57 58 60 62 64 67 70 73 76 79 83 85
43 41 41 41 43 44 45 45 45 48 49 49 48 47 48 48 50 51 52 52 51 52 53 54 56 54 50 44 36 38 42 41 42 44 43 39 37 37 37 39 41 42 43 44 44 46 46 47 45 43 41 42 44 45 46 47 46 47 48 49 51 53 54 54 53 53 54 56 57 57 58 59 59 58 58 59 61 63 65 69 72 75 78 81 85 87
44 42 43 44 45 46 47 46 46 49 51 51 48 47 49 51 51 51 52 53 54 54 54 55 55 54 54 48 39 39 40 40 45 48 46 41 40 40 38 39 42 44 45 46 46 47 47 46 45 44 43 43 44 45 46 46 46 48 50 51 53 54 54 54 53 54 56 58 59 59 59 59 59 58 59 61 63 65 67 71 74 78 82 85 87 88
46 44 45 47 48 48 48 47 47 49 52 53 49 47 50 51 52 53 52 53 55 56 57 56 53 56 58 51 44 43 42 41 45 49 48 44 43 42 41 43 46 47 48 48 49 49 49 48 47 46 45 45 45 46 46 47 49 51 52 54 54 54 54 54 55 56 58 60 60 60 60 60 60 59 61 63 65 67 69 73 76 81 85 88 89 90
47 47 48 48 48 49 48 47 47 49 52 53 51 50 51 51 52 53 52 54 55 57 60 55 52 58 60 54 49 46 45 44 46 48 48 45 45 45 45 48 49 50 51 51 52 52 52 51 50 49 48 47 47 47 47 49 51 53 53 54 55 55 56 56 57 59 60 61 61 61 61 61 61 61 63 65 67 70 73 76 80 83 87 90 91 92
49 49 49 49 50 50 48 48 48 49 51 53 53 53 53 52 53 53 53 55 55 59 61 54 53 59 59 54 51 48 47 48 49 50 49 47 47 48 48 51 52 52 53 54 55 55 55 54 52 51 50 49 48 48 49 51 52 52 53 55 56 58 58 58 59 60 61 62 61 62 63 62 63 64 66 68 70 73 76 79 83 86 89 91 92 92
50 50 50 51 51 50 49 49 49 49 52 53 54 54 54 54 54 54 55 55 56 61 60 54 55 61 60 54 49 48 50 52 53 53 51 49 50 50 51 53 54 54 56 57 58 57 57 55 54 53 51 49 48 48 50 51 51 53 55 57 58 60 60 60 60 61 61 62 62 63 63 63 64 66 68 70 73 77 80 83 86 88 91 92 93 92
50 51 52 51 51 50 49 50 49 50 52 52 53 54 54 56 56 56 57 56 59 62 58 55 58 62 62 55 48 50 53 55 55 54 53 52 51 51 53 55 56 57 58 59 58 57 56 56 54 51 48 46 47 49 50 51 52 55 57 59 60 61 61 61 61 61 61 62 63 64 64 65 66 68 70 73 76 79 82 85 88 90 91 92 92 92
51 51 51 51 50 50 50 50 51 51 52 52 54 55 55 57 57 58 60 58 60 61 57 57 60 62 64 56 50 53 55 56 56 55 55 53 52 53 55 57 57 58 58 58 57 55 55 55 52 48 46 46 48 50 51 53 55 57 59 60 61 61 61 61 61 61 61 62 63 64 65 67 68 70 72 75 78 82 84 86 88 89 91 91 91 90
52 52 52 52 51 51 51 52 52 53 53 55 56 56 56 57 58 60 61 60 61 60 57 59 61 63 63 55 52 54 55 56 56 56 56 54 53 56 58 58 57 57 57 56 55 55 56 55 51 48 47 48 49 50 52 55 57 59 60 61 61 61 61 61 60 60 61 62 64 65 67 68 70 72 75 78 81 83 85 86 87 88 89 89 89 89
55 55 54 52 51 52 53 53 54 55 56 58 58 57 57 57 59 62 63 62 61 57 57 60 61 63 60 55 54 55 55 56 56 56 55 54 56 59 59 58 57 57 56 55 55 57 57 56 52 50 49 49 50 52 55 57 59 60 61 61 61 61 60 60 60 61 62 64 66 67 68 70 72 74 77 80 82 84 85 85 86 86 87 87 88 88
57 58 57 54 53 55 55 55 56 57 59 60 58 57 57 56 58 60 61 62 60 56 57 62 62 62 60 58 58 57 56 57 56 55 54 55 58 61 59 57 56 55 55 56 57 58 57 55 53 51 50 51 52 55 57 59 60 60 60 60 60 60 60 60 61 62 64 67 68 69 70 72 74 77 79 81 83 83 83 83 83 84 86 87 87 87
58 60 59 58 57 57 56 56 57 58 59 59 57 56 56 55 57 59 59 59 58 57 59 62 64 62 60 61 61 58 57 56 55 55 55 56 59 59 57 55 55 55 57 58 58 58 56 54 52 50 51 52 55 57 59 60 60 59 59 59 59 59 60 61 62 64 67 68 69 70 72 74 77 79 81 82 83 82 81 81 81 83 86 87 87 86
58 61 61 61 60 58 58 57 58 59 59 57 55 55 55 56 57 58 59 58 58 60 61 62 64 63 62 62 59 58 57 55 55 56 57 58 59 58 56 56 57 58 59 59 58 57 55 52 51 51 53 55 57 58 59 59 59 59 59 59 59 59 60 62 64 66 68 69 70 72 74 77 79 81 82 82 82 80 79 80 81 83 86 87 86 85
58 60 60 60 60 59 59 59 59 59 59 57 56 56 56 58 58 58 59 59 60 63 62 61 62 64 64 62 58 58 59 58 58 59 59 60 60 59 58 59 59 59 59 58 56 55 53 52 53 54 55 56 56 57 58 58 58 58 58 58 58 59 61 63 65 66 68 69 71 74 76 79 82 83 83 82 80 78 77 79 82 84 86 87 86 84
58 59 59 59 59 58 57 59 60 59 58 59 58 58 58 59 58 58 60 61 62 64 64 61 60 64 65 62 58 59 60 60 61 61 62 63 63 62 61 60 60 58 57 56 54 54 54 54 55 55 55 55 56 57 57 57 57 57 57 58 58 60 62 64 65 66 68 70 73 76 79 82 84 83 82 81 78 77 77 80 82 85 86 86 85 84
58 59 59 57 56 56 56 58 58 57 58 60 60 61 61 60 59 59 60 61 62 63 65 63 62 63 66 63 60 60 60 61 63 64 64 65 63 62 61 61 60 57 55 54 53 54 54 54 54 54 55 55 55 56 57 57 57 57 57 58 59 61 62 63 65 66 69 72 74 78 82 85 84 82 80 79 77 76 78 81 83 85 86 85 84 84
60 61 61 58 57 58 58 57 57 57 59 61 62 62 61 59 60 60 60 59 60 62 64 66 67 64 64 64 62 61 62 65 67 66 65 65 62 61 62 61 59 56 54 53 54 54 54 54 55 54 54 55 55 57 57 57 57 56 57 58 59 61 62 64 65 67 70 73 76 81 84 84 82 80 79 77 76 77 79 82 85 86 85 85 84 84
62 61 61 61 61 61 59 58 60 61 61 61 62 61 59 58 59 60 61 60 59 61 64 68 72 67 63 64 63 62 64 67 68 67 65 63 61 61 61 59 56 54 53 54 54 54 54 55 55 55 55 55 56 56 56 56 56 56 57 58 60 61 63 65 66 69 72 75 79 83 84 81 79 78 77 77 77 78 81 83 85 86 85 84 84 84
62 60 60 63 63 62 61 62 62 63 63 63 62 60 57 58 58 60 64 63 62 65 68 72 77 71 63 64 65 65 67 67 67 66 63 60 59 59 58 56 54 54 53 53 54 54 55 55 55 55 55 55 55 54 54 54 55 56 57 59 61 62 64 66 68 71 75 78 82 84 82 78 77 77 76 76 77 79 82 84 85 85 84 83 84 84
60 59 60 63 63 64 65 65 65 65 65 63 61 58 58 60 61 62 67 68 68 71 72 75 79 74 66 65 67 68 68 67 65 64 61 58 58 57 56 54 54 54 53 53 54 55 55 55 54 54 54 54 53 52 52 53 54 56 58 60 62 63 65 68 70 74 78 81 84 83 79 77 76 76 76 77 78 80 83 84 84 84 84 83 83 84
60 59 60 62 65 68 69 70 69 66 64 61 60 61 62 63 64 66 70 72 74 75 74 77 81 76 69 68 70 71 70 67 64 62 58 56 55 54 54 54 54 53 53 53 54 55 55 54 53 53 52 50 49 49 50 52 54 57 59 60 63 65 67 70 74 78 81 83 83 81 77 76 76 76 77 77 79 81 82 83 84 83 83 83 84 84
61 61 62 65 70 73 73 72 70 66 64 65 66 66 65 65 67 70 73 76 79 78 77 80 82 78 70 69 72 71 69 66 62 58 56 55 54 53 53 54 54 54 53 53 55 55 54 53 52 49 47 46 47 48 51 53 55 57 59 61 64 67 71 74 78 81 82 83 82 78 76 76 76 77 77 78 79 80 81 82 82 82 82 83 84 84
62 65 69 73 76 76 75 72 70 69 70 71 70 68 68 69 70 72 77 81 81 79 80 80 81 80 74 70 70 68 65 64 60 57 56 55 52 52 54 55 55 54 53 54 55 55 53 50 47 44 44 47 49 51 53 55 56 58 61 63 67 70 74 77 80 81 82 82 80 77 76 76 77 77 78 78 78 79 80 81 81 81 82 83 84 85
64 70 73 75 76 75 74 72 72 73 74 73 73 72 71 72 72 74 80 82 79 81 84 80 77 79 76 70 67 64 62 61 59 57 57 53 51 54 55 56 55 54 54 55 54 51 48 44 42 44 48 51 53 54 54 56 58 60 63 66 70 73 77 80 81 82 82 81 78 76 76 77 77 78 78 77 78 79 80 80 80 81 82 83 85 86
71 74 72 73 76 76 74 73 75 77 77 77 76 73 71 72 75 77 80 78 77 82 85 78 73 76 75 69 64 62 62 62 60 58 56 52 53 56 56 56 55 54 53 51 48 45 42 42 46 50 52 52 53 54 56 57 60 62 66 70 73 76 79 81 81 82 82 79 77 76 76 77 78 79 78 77 78 79 79 79 80 80 82 83 85 87
75 74 69 70 75 76 73 73 75 78 80 79 75 71 72 75 77 78 78 76 75 78 80 75 73 74 72 67 63 61 62 62 59 55 53 53 56 57 56 55 54 51 48 46 44 43 45 48 51 51 51 52 54 55 57 59 62 65 69 72 75 78 80 80 81 82 81 78 76 76 76 77 78 79 78 77 77 78 78 79 79 80 82 84 86 88
73 72 70 72 78 78 76 74 74 76 77 77 75 75 78 80 78 77 77 75 72 74 74 70 72 74 70 63 62 63 63 59 56 54 55 56 57 56 55 54 51 48 45 44 45 47 50 51 51 51 52 54 55 56 59 61 64 67 70 74 77 78 78 79 81 81 80 77 76 76 76 78 79 79 78 77 77 78 78 79 79 80 82 84 86 89
73 76 76 77 81 82 79 76 76 76 77 78 80 80 79 78 77 75 74 72 71 71 69 67 71 74 67 60 62 65 61 56 55 56 57 57 57 55 53 51 49 46 45 46 49 51 51 51 51 52 54 54 56 58 60 62 65 68 72 75 77 76 76 78 80 80 78 76 76 76 77 78 78 78 78 77 77 77 78 79 79 81 82 85 87 90
76 77 77 78 82 81 78 77 78 78 79 82 81 74 70 70 71 70 70 70 69 67 66 68 72 72 65 63 66 65 59 57 58 58 58 58 56 54 52 51 49 47 46 48 51 51 51 51 53 54 54 55 57 59 61 63 66 69 72 76 76 75 75 77 79 79 77 76 76 76 77 78 78 78 77 77 77 77 78 79 80 81 83 85 88 91
76 77 77 78 79 78 76 76 77 78 82 83 76 66 64 67 69 71 70 67 64 63 65 69 72 70 66 65 65 62 59 60 60 59 60 59 56 53 53 51 48 46 48 51 52 52 52 53 54 54 55 56 58 60 62 63 65 68 72 75 75 74 75 77 78 78 77 76 76 76 76 77 78 77 77 77 77 78 79 80 81 82 84 87 89 92
78 77 77 76 75 77 76 75 78 82 82 77 70 66 69 73 74 73 69 62 60 62 66 71 71 68 65 63 61 60 62 62 60 61 61 57 54 54 54 50 47 47 50 52 53 53 54 54 55 55 56 58 60 61 62 63 65 68 72 75 75 73 74 76 78 78 77 76 76 76 76 77 77 77 77 77 77 78 79 80 81 82 84 87 90 92
75 73 72 71 72 76 76 76 80 81 75 71 71 72 73 74 72 68 64 62 63 65 70 73 68 62 61 60 59 62 66 64 61 61 58 53 52 54 52 48 47 50 52 53 54 55 55 55 55 56 57 59 61 61 62 63 64 67 70 74 74 73 73 76 78 79 77 76 75 75 76 77 76 76 77 77 77 78 79 81 82 83 85 88 90 93
70 69 70 71 73 75 76 77 77 75 73 74 72 69 67 67 66 62 64 70 70 69 71 70 62 57 58 59 62 66 68 65 61 58 54 52 54 53 49 48 50 52 53 54 55 55 55 56 56 56 58 60 61 61 62 63 64 66 70 73 73 73 74 76 78 79 78 76 75 75 76 76 76 76 77 77 77 78 79 81 82 83 86 88 91 94
71 70 70 71 72 71 71 73 74 74 77 77 72 67 66 66 63 60 65 75 77 73 69 63 56 56 59 62 65 67 64 61 59 55 53 55 55 51 49 50 52 53 54 55 55 55 56 55 55 56 58 60 61 61 62 64 64 66 69 72 72 72 74 76 79 79 77 75 74 75 76 76 76 76 77 77 77 78 79 81 82 84 86 88 92 94
75 71 66 66 68 67 68 73 75 76 79 78 72 69 68 66 62 59 67 77 79 71 64 57 54 58 63 64 66 63 58 58 57 55 55 56 53 49 50 52 53 53 54 55 55 56 56 56 56 58 59 61 61 62 63 65 64 65 68 70 70 71 74 77 78 78 76 74 74 75 75 75 76 76 77 77 78 78 79 81 82 84 86 89 92 94
77 72 68 68 69 68 68 72 75 76 77 74 69 68 68 65 59 60 73 81 75 64 60 57 55 60 65 67 66 62 58 57 56 54 53 51 50 50 51 53 53 54 55 55 56 57 57 58 58 59 61 62 62 63 64 65 64 64 66 67 68 71 75 76 77 76 74 73 74 74 75 75 76 76 76 76 77 78 79 81 83 84 86 89 92 93
79 78 77 76 74 71 72 75 78 77 75 71 69 67 63 58 58 68 78 75 62 57 60 57 56 61 66 69 69 64 60 58 56 52 50 50 51 52 53 54 55 56 56 57 58 59 59 60 60 60 62 63 63 64 65 64 63 63 64 66 68 72 74 76 76 75 73 73 73 74 75 75 75 76 76 76 77 78 80 81 83 84 86 88 90 91
80 80 81 80 78 78 77 77 78 78 73 68 64 58 53 55 63 70 67 57 52 57 60 58 59 63 65 67 66 63 61 60 55 53 51 53 54 54 55 56 57 58 59 60 61 61 61 61 61 61 62 62 63 65 65 63 62 63 65 67 70 73 74 75 75 73 72 72 73 74 74 75 75 75 75 75 77 78 80 81 83 84 86 87 88 88
78 78 80 81 81 80 77 75 76 76 69 59 55 53 54 57 58 56 53 51 53 57 58 60 62 62 64 65 62 58 59 59 56 54 54 55 55 56 57 57 58 60 62 63 63 62 62 61 62 62 62 63 64 65 64 63 63 64 66 69 71 73 74 74 73 71 71 72 72 73 73 73 74 74 74 75 76 79 80 81 82 84 85 86 85 85
77 79 81 82 81 77 75 76 76 72 66 60 59 60 61 58 52 50 51 53 51 52 56 59 60 60 62 62 59 56 58 59 57 56 56 57 58 59 58 59 60 62 63 63 63 62 61 62 62 63 63 64 64 64 63 63 64 65 67 70 72 73 74 73 71 69 70 70 71 71 72 72 72 73 73 74 76 79 80 81 82 83 84 84 83 83
79 78 78 79 78 75 76 77 72 67 64 63 62 62 62 61 56 52 51 51 49 51 54 54 54 56 58 59 60 60 58 57 55 56 59 61 62 62 61 61 61 62 63 63 63 62 62 62 62 63 64 64 63 63 63 64 65 65 67 70 72 73 72 70 68 68 68 69 69 69 70 70 71 72 72 74 76 78 80 81 81 82 82 81 81 80
87 82 80 79 78 78 78 74 67 62 61 61 61 58 57 60 60 56 53 53 52 53 52 51 51 53 55 57 59 57 54 54 56 59 62 65 67 66 65 64 63 63 64 64 63 62 62 62 63 64 64 62 61 62 64 64 65 65 67 70 72 72 70 68 66 66 66 66 66 67 68 69 70 71 72 74 76 78 80 81 82 81 81 79 79 78
98 95 93 90 89 89 86 75 66 63 64 65 65 61 58 59 61 58 56 57 59 61 61 58 56 58 60 59 57 54 54 57 60 64 67 69 71 72 71 69 66 64 65 66 65 63 63 63 64 64 62 60 60 62 63 64 64 65 68 70 71 71 68 65 63 64 64 64 64 65 66 67 69 71 72 74 76 78 80 81 82 81 80 78 77 76
102 102 101 99 101 103 99 88 78 75 75 75 74 73 70 68 65 63 63 66 70 74 76 74 73 74 72 68 64 62 62 64 67 71 73 74 75 76 74 70 67 66 67 67 65 63 64 64 64 63 61 60 61 62 62 63 64 66 68 70 70 68 65 62 61 61 61 62 62 63 64 65 67 69 71 73 75 77 78 80 80 80 78 77 76 74
99 100 100 99 101 105 106 101 94 89 89 88 86 86 84 77 72 72 75 79 81 83 85 86 86 83 80 77 76 76 74 73 75 77 77 77 78 77 73 69 67 67 68 67 64 63 64 64 63 62 61 60 60 60 61 63 65 67 69 70 68 65 62 59 59 59 59 60 60 61 62 64 65 67 70 72 75 77 78 78 78 78 77 75 73 71
99 100 98 97 99 102 104 102 96 91 91 92 91 92 90 82 75 75 79 82 85 88 90 91 89 86 82 79 77 76 75 73 73 74 75 76 76 75 71 67 67 68 68 65 62 62 63 63 63 62 61 61 60 60 61 64 65 67 68 68 65 62 59 58 57 57 57 57 58 59 60 62 64 66 68 71 74 76 77 77 77 77 76 73 69 66
101 99 97 96 98 97 95 93 89 87 87 87 88 90 89 82 77 77 79 81 83 85 86 86 84 80 75 70 69 70 71 70 72 74 75 74 74 72 68 67 67 67 66 64 63 63 63 64 64 63 62 62 61 60 62 64 66 67 67 65 62 59 57 56 55 55 55 55 56 57 58 60 62 65 67 70 72 73 74 75 76 76 74 70 65 61
Wind_Direction
287 288 290 290 290 294 296 298 300 301 303 304 305 305 306 307 307 303 301 302 302 301 303 303 300 304 308 309 311 312 312 312 314 312 308 304 302 303 305 304 302 302 301 300 299 298 298 298 297 296 294 292 291 290 289 287 287 287 289 290 291 292 294 296 298 299 300 300 301 302 303 303 303 303 302 302 301 300 299 299 298 297 296 295 294 294
287 289 290 288 290 294 295 297 298 299 300 301 302 302 304 305 303 301 300 302 301 301 303 302 300 303 306 307 310 311 310 312 313 313 309 305 305 305 304 302 301 300 299 299 298 297 298 298 298 298 295 291 289 289 288 287 287 288 290 290 291 293 294 297 298 299 299 300 302 303 304 304 304 303 302 301 301 300 300 299 298 297 297 296 295 295
287 290 290 288 291 293 293 295 297 297 298 298 299 300 302 303 300 299 300 300 300 300 301 301 300 302 304 305 309 309 308 312 312 310 308 307 308 307 304 302 300 300 300 299 298 298 298 298 299 298 295 291 289 289 289 289 289 290 290 291 292 293 295 297 298 299 300 301 303 304 304 305 304 302 301 301 301 300 300 299 298 297 297 296 296 295
288 290 289 290 291 292 292 295 296 295 295 296 297 298 301 300 298 299 300 299 299 299 300 301 301 302 303 303 308 307 306 311 312 308 308 310 311 309 305 303 301 300 300 300 299 299 298 298 298 298 296 291 289 290 291 292 292 291 291 291 292 294 295 297 299 300 301 303 304 304 305 305 304 302 301 301 301 301 300 299 298 297 297 297 296 296
286 288 289 290 290 291 292 294 294 294 293 293 296 299 300 297 297 299 299 299 299 299 299 300 302 303 302 300 304 304 305 311 312 310 311 312 312 310 306 302 300 300 300 300 300 300 299 299 299 298 295 292 291 292 293 294 293 292 291 292 294 295 297 298 300 301 303 305 306 306 305 305 304 302 301 302 302 301 300 298 297 297 297 296 296 295
285 288 289 289 289 290 291 292 294 293 292 293 296 298 297 296 297 297 297 298 299 299 299 299 302 304 301 300 305 306 306 310 311 310 312 313 313 312 308 304 302 301 300 300 300 300 300 301 301 299 295 294 294 295 295 294 294 294 294 294 296 297 299 300 302 303 305 307 307 306 306 305 303 302 301 302 302 300 299 298 298 298 297 296 296 297
285 287 287 287 288 288 289 292 293 292 292 294 297 297 295 295 296 295 296 297 298 299 299 299 304 304 299 300 307 306 305 309 308 307 310 313 314 313 310 307 304 303 302 301 301 301 301 302 302 300 297 296 297 296 296 295 295 295 295 297 299 301 303 303 304 306 307 308 307 307 306 305 304 303 302 302 301 300 300 299 299 298 297 297 297 299
286 285 285 286 286 286 289 291 291 291 292 294 296 295 294 294 293 293 294 295 296 298 296 299 303 300 297 302 306 304 305 309 307 305 309 313 313 313 311 307 304 302 302 302 301 301 301 302 303 302 300 298 297 297 297 297 297 296 297 300 303 305 307 306 306 307 308 308 307 307 306 306 305 304 304 303 302 301 301 300 299 298 297 297 299 300
284 284 284 284 285 286 289 289 290 291 291 293 294 294 293 293 292 292 293 293 295 295 295 300 301 296 296 300 303 305 307 308 306 306 311 313 313 313 311 305 302 303 303 302 301 300 301 302 303 302 300 297 297 298 300 300 300 299 301 304 307 308 309 308 308 307 307 307 307 307 307 306 305 305 305 304 303 302 301 300 299 298 297 298 300 301
283 283 284 284 285 287 287 288 289 290 290 291 292 292 292 292 291 292 292 293 293 292 297 302 299 295 296 298 302 306 307 307 306 307 311 313 314 314 309 304 304 304 304 302 300 300 301 303 303 302 299 296 297 301 303 303 303 303 305 307 308 309 310 309 308 307 306 307 307 308 307 307 306 306 306 305 303 301 300 299 298 298 299 300 301 303
283 283 284 285 286 287 287 288 288 288 289 290 290 291 291 290 291 292 292 292 292 292 298 299 296 294 294 297 305 307 305 305 305 307 310 312 315 312 307 306 306 305 304 302 301 302 303 304 304 301 298 297 300 304 305 306 306 307 308 309 309 310 310 309 307 305 305 306 307 307 307 307 307 306 305 304 302 301 299 299 299 299 300 301 303 304
283 283 285 286 286 287 288 288 288 288 289 289 290 291 291 290 290 291 291 291 291 293 298 297 294 293 291 298 306 305 303 304 304 307 309 311 313 310 307 307 307 305 303 302 302 304 305 305 305 302 299 299 302 305 306 307 307 308 309 309 309 310 309 308 305 304 304 305 306 306 306 307 306 306 304 303 301 300 300 300 300 301 301 303 304 305
284 285 286 287 288 289 289 288 288 289 289 288 288 290 291 290 291 290 290 291 290 293 296 294 293 291 292 300 304 301 301 302 304 307 308 311 312 308 307 307 305 304 302 302 303 304 305 305 305 303 302 302 303 305 306 307 308 309 309 309 309 309 308 306 304 303 303 304 305 305 305 305 305 304 303 302 301 301 301 301 302 302 303 304 305 306
287 287 287 288 289 288 287 287 288 288 288 287 287 290 291 291 291 290 290 291 291 294 295 292 291 292 297 302 301 299 301 302 305 307 308 311 310 307 306 306 305 303 302 302 303 304 304 304 304 304 303 303 303 304 305 307 308 309 309 309 309 308 306 304 302 302 302 303 303 303 304 304 303 303 303 302 302 302 302 303 303 304 304 305 306 307
288 286 286 288 287 286 286 286 286 286 285 285 287 289 290 291 292 291 289 289 292 295 295 292 292 295 300 301 299 300 302 304 306 307 309 311 309 307 307 307 306 304 303 302 302 302 303 303 304 304 302 302 303 304 306 307 308 309 309 309 308 306 305 303 302 302 302 302 302 302 302 302 302 303 303 302 302 302 303 304 305 305 306 307 308 309
286 285 285 286 286 286 286 285 285 285 285 285 287 289 291 293 293 291 288 289 292 293 293 293 294 297 300 298 298 301 303 305 307 308 310 310 309 308 307 306 306 304 303 302 302 303 304 304 304 303 302 303 304 305 306 307 307 307 307 307 306 305 304 302 302 301 301 301 301 301 301 302 303 303 303 302 302 303 304 305 306 307 307 308 310 311
285 284 283 284 286 287 287 286 286 286 285 286 288 290 292 292 291 290 289 291 291 290 291 295 296 298 298 296 298 301 303 306 307 308 309 309 309 308 305 305 306 304 303 303 304 305 304 303 303 302 303 304 304 305 305 306 306 306 305 305 305 304 303 302 302 301 301 301 300 300 301 302 303 303 302 301 302 303 305 307 307 308 308 310 311 312
284 283 282 284 286 287 288 288 287 286 287 289 291 292 291 289 289 290 291 292 290 288 291 294 295 296 295 295 300 303 305 307 307 308 309 309 309 306 304 306 306 304 303 304 305 305 303 302 302 302 303 303 304 304 304 305 305 304 304 304 304 304 303 303 302 302 301 300 300 300 301 303 304 303 301 301 302 304 306 308 308 308 309 311 312 313
285 284 283 284 286 287 288 286 286 288 291 292 292 290 288 288 290 292 291 291 290 289 291 293 294 294 293 295 301 303 305 307 306 306 307 307 306 304 303 306 305 303 303 304 304 303 302 302 302 302 303 303 303 304 304 304 303 303 303 304 304 304 303 303 303 302 300 299 300 301 303 304 304 302 301 302 303 306 307 308 308 309 310 312 313 314
285 285 285 286 287 287 285 284 287 291 291 290 288 287 288 291 292 292 291 291 290 290 291 291 291 292 292 297 301 304 306 305 304 304 305 304 304 302 303 304 302 302 303 303 303 303 303 303 303 303 303 303 303 303 303 302 302 303 304 304 304 304 304 304 303 301 300 300 300 301 304 305 303 302 301 303 305 307 308 308 309 310 311 313 313 313
287 287 288 290 288 286 286 287 289 287 285 285 285 288 291 293 292 292 291 292 292 290 290 289 289 290 293 298 303 306 306 304 303 304 304 304 302 300 301 302 301 302 302 301 303 304 304 305 305 305 304 303 303 303 302 303 303 304 305 304 305 304 304 303 302 301 300 300 300 302 304 304 302 302 303 305 307 308 308 309 309 310 312 313 313 313
287 288 290 289 287 287 288 287 284 283 283 284 285 288 292 292 291 290 290 291 290 289 289 288 288 291 295 299 305 307 303 302 303 304 304 302 299 298 299 301 301 302 301 301 303 304 304 305 305 305 304 303 303 303 304 304 305 305 305 305 305 304 304 302 301 300 299 299 300 303 305 303 302 302 304 306 307 308 308 309 309 311 312 313 313 313
286 287 287 286 286 287 285 282 281 282 283 283 286 292 293 290 288 288 288 289 288 287 288 287 287 291 298 303 306 304 300 301 303 302 301 298 296 296 298 299 300 300 300 302 303 303 304 305 305 304 303 303 304 305 306 305 305 305 304 304 303 303 302 300 298 298 299 299 301 304 304 302 302 303 305 307 307 307 308 309 310 311 312 313 313 314
285 284 285 286 285 283 281 280 280 281 282 285 289 291 288 286 287 288 288 288 287 286 287 286 287 293 302 306 305 302 301 302 301 299 297 294 294 295 296 298 299 299 300 302 303 302 303 304 304 303 303 304 305 306 306 305 305 304 303 302 302 300 299 298 297 298 298 300 302 304 302 301 302 304 305 306 307 308 309 309 311 312 312 313 314 314
283 283 283 284 282 279 279 279 280 282 284 286 286 285 284 285 287 287 288 288 286 286 286 286 289 297 304 305 302 301 302 301 299 296 294 292 292 293 295 297 298 297 299 301 301 301 302 303 303 302 303 305 306 306 305 304 303 302 301 300 299 297 296 296 297 298 299 300 302 302 301 301 302 304 305 306 307 308 309 310 311 312 313 314 314 315
280 279 278 277 277 277 278 280 281 283 283 282 282 282 284 285 286 286 287 286 285 287 287 288 293 300 302 301 301 301 301 299 297 296 292 290 290 292 295 296 296 297 299 300 300 300 301 301 300 301 304 305 306 305 303 301 300 299 298 297 295 295 295 297 298 298 300 301 302 301 300 301 302 304 305 306 307 308 310 311 312 313 314 315 315 315
278 276 275 275 275 276 278 280 280 280 279 280 282 283 284 285 285 286 284 283 286 289 289 292 297 299 299 299 300 301 301 298 297 294 290 289 290 293 295 295 295 297 299 299 300 300 300 300 300 302 305 306 305 302 299 298 297 296 295 294 293 294 295 297 298 299 300 301 301 299 299 301 302 304 305 306 307 309 310 312 313 314 315 315 315 315
275 274 276 278 277 278 279 278 278 278 278 281 282 284 285 285 284 283 282 283 288 290 290 294 298 296 297 301 301 301 300 297 294 291 289 290 292 294 295 294 295 298 299 300 300 299 298 298 300 303 305 305 303 299 296 295 295 294 293 293 293 294 296 298 299 300 301 301 300 299 299 301 303 304 305 306 308 310 311 312 314 315 316 316 316 316
273 274 278 279 278 279 280 280 279 278 279 280 281 283 285 284 282 281 282 286 291 290 290 294 295 293 296 300 300 300 298 294 291 290 290 292 293 293 294 295 297 299 300 299 297 295 296 299 302 304 305 303 299 296 294 294 293 293 292 293 294 295 297 298 299 300 301 300 299 299 300 302 303 304 305 307 309 311 312 313 314 315 316 316 316 315
274 275 278 279 278 280 281 282 280 278 279 280 280 282 283 282 281 282 285 291 293 290 290 292 290 290 295 300 300 298 294 291 290 290 291 292 292 293 295 297 299 299 297 294 292 294 298 301 303 304 303 300 297 295 293 293 293 293 293 293 294 296 297 298 300 300 300 299 298 299 300 302 303 305 306 308 310 311 313 314 315 316 316 316 316 315
275 277 280 280 279 279 281 281 280 278 279 279 280 281 281 281 283 286 290 291 290 288 288 288 287 290 296 301 298 294 291 290 290 291 291 292 293 295 297 297 297 295 291 290 293 297 301 303 304 304 302 299 296 294 294 293 293 293 293 294 295 296 297 299 301 301 300 299 298 299 301 302 304 306 307 309 311 312 314 315 316 317 316 316 316 316
277 279 281 281 279 280 282 281 278 278 279 279 279 281 283 286 289 291 290 287 286 287 287 285 286 291 297 296 291 290 290 289 288 289 290 292 293 295 296 295 293 290 288 292 297 301 303 304 305 304 301 298 296 294 294 294 294 294 294 294 295 296 297 300 302 302 300 299 299 299 301 303 305 307 308 309 311 313 314 315 316 317 317 316 316 316
277 278 280 279 277 279 280 279 278 279 277 277 280 285 290 293 293 289 285 284 286 287 285 285 288 292 293 290 288 289 289 286 286 288 290 292 293 293 293 291 289 287 290 296 300 303 305 306 307 305 301 298 296 295 295 295 295 295 294 294 295 295 298 301 303 303 300 299 299 300 302 304 306 307 308 310 312 314 315 316 317 317 317 317 317 317
276 277 278 277 276 277 277 278 278 275 274 278 284 290 294 294 291 287 284 286 289 286 285 287 288 289 290 288 287 288 285 283 285 287 289 291 291 290 289 287 286 288 293 298 303 306 308 308 307 303 299 297 296 296 296 296 296 295 295 295 295 294 298 302 304 303 301 299 299 300 302 305 306 308 309 311 313 314 316 316 317 317 317 317 318 318
276 276 276 275 275 276 277 276 273 272 277 283 287 289 292 294 293 289 287 289 288 285 284 285 285 287 289 287 286 284 282 282 283 286 289 290 287 286 286 284 285 290 295 301 306 308 309 309 306 301 299 297 296 296 296 296 296 296 296 295 294 294 299 304 305 304 301 299 300 301 303 305 307 308 310 312 313 315 316 316 317 317 318 318 319 320
274 274 273 274 274 275 275 273 272 275 280 281 282 288 293 294 292 289 287 284 283 285 286 284 283 286 286 284 283 281 281 282 284 287 289 285 281 282 283 282 286 291 297 304 308 309 309 307 303 300 298 296 295 295 296 297 297 297 296 296 294 295 300 304 305 304 302 300 299 301 303 305 307 309 311 312 314 315 315 316 317 317 318 319 320 321
269 269 271 272 273 274 275 275 276 277 276 277 283 291 294 290 286 286 284 280 283 290 289 284 283 286 285 283 281 280 281 283 284 287 286 280 278 280 280 281 287 293 299 306 309 309 307 304 300 298 296 295 294 295 297 298 299 298 297 296 294 296 301 304 304 304 303 300 299 301 303 305 307 309 311 312 313 314 315 316 317 318 319 320 321 322
266 267 269 271 272 273 274 275 275 274 275 280 287 290 288 283 281 282 279 280 287 292 287 284 287 287 284 281 279 280 282 282 283 286 283 276 276 277 278 283 289 295 302 307 308 307 305 301 298 296 294 294 294 295 298 300 299 298 298 296 296 298 301 303 304 304 302 299 299 300 302 304 307 309 311 312 313 314 316 317 318 318 320 321 322 323
265 264 266 269 271 272 273 274 275 275 277 282 286 287 284 280 279 277 274 281 291 294 288 286 287 283 281 280 279 281 280 279 282 285 278 272 273 277 280 286 293 299 304 306 306 304 302 299 297 295 294 294 295 297 299 299 298 297 298 298 298 299 301 302 304 303 301 299 299 300 302 304 306 308 310 312 313 314 316 317 318 319 320 322 323 324
265 263 264 265 267 269 272 274 276 276 277 281 283 283 280 278 277 272 273 285 296 295 287 283 279 277 279 279 278 279 277 278 283 280 272 270 276 280 285 291 296 302 305 305 304 303 302 300 297 295 294 295 296 297 299 299 297 297 298 299 300 300 302 303 304 302 300 298 298 299 301 303 305 307 310 312 313 314 316 317 318 320 321 323 325 325
268 266 265 264 266 268 270 273 274 275 277 280 281 281 281 280 275 272 279 291 295 286 279 277 275 277 278 277 277 276 276 279 280 273 269 275 281 285 290 295 300 304 305 305 305 304 303 300 297 295 295 295 296 298 299 299 298 298 300 301 302 302 303 304 303 301 299 298 298 298 300 302 304 307 310 312 313 315 316 317 319 320 322 324 326 326
269 268 267 266 267 268 269 272 274 275 277 280 282 283 283 279 275 278 285 290 283 276 277 277 277 278 277 275 276 276 277 278 273 268 273 282 286 290 294 297 302 304 305 306 306 305 303 300 297 295 295 296 297 299 299 299 299 300 302 303 303 303 304 303 302 300 298 297 298 298 300 301 304 307 310 312 313 314 315 317 319 321 323 326 327 326
268 267 266 266 267 268 270 273 275 276 278 280 282 282 279 278 282 287 288 283 279 280 282 280 279 278 276 276 276 277 278 275 268 268 279 288 293 296 298 300 303 304 305 306 306 304 302 298 296 295 295 296 298 299 298 298 300 302 303 303 303 303 303 302 300 298 297 297 297 298 299 301 304 307 309 311 313 314 315 317 320 322 325 327 327 327
268 266 267 269 269 269 271 273 274 277 281 281 280 281 282 284 289 289 285 285 287 287 285 283 282 280 278 277 275 274 274 272 269 275 285 293 298 300 300 302 303 304 304 305 303 302 300 297 295 295 295 297 298 297 297 298 301 302 303 303 303 302 302 300 298 297 296 297 297 298 300 302 305 307 309 311 313 314 315 318 320 323 326 327 328 328
269 271 272 272 270 268 269 272 274 279 282 282 283 287 288 288 287 284 283 287 290 288 286 285 285 283 280 276 274 274 273 273 276 282 288 295 301 302 301 302 303 302 303 302 300 299 298 296 295 295 295 297 297 296 297 299 301 303 303 302 302 301 300 298 296 296 296 296 297 299 301 303 305 307 309 311 312 314 316 318 321 324 327 328 329 329
272 273 273 270 270 270 270 271 273 277 280 284 288 291 290 288 286 284 283 285 288 289 289 288 288 288 285 280 278 276 274 276 281 285 289 295 300 301 301 302 302 301 302 300 298 297 296 294 294 294 295 296 296 295 297 300 302 302 302 301 301 300 298 296 295 295 296 296 298 300 301 303 305 307 309 311 312 315 317 319 322 326 328 330 331 331
273 273 273 271 271 272 272 272 274 277 279 281 285 287 289 291 291 288 285 285 286 288 289 289 290 291 290 287 284 278 275 277 281 285 288 293 297 299 300 300 299 299 300 298 295 294 294 294 294 294 295 294 293 294 298 301 302 302 301 301 300 298 296 295 294 295 295 297 298 300 302 303 305 307 309 311 313 316 318 321 324 327 329 331 332 332
274 274 274 273 272 272 273 273 275 277 278 279 280 281 283 286 286 285 285 285 285 285 287 289 290 290 290 291 289 283 280 282 284 286 287 290 294 297 297 296 296 298 299 297 293 292 294 294 294 294 294 293 293 295 299 301 301 301 300 300 298 296 294 293 293 294 295 297 298 300 302 303 305 307 310 312 315 317 319 322 325 328 330 332 333 332
274 274 274 274 275 274 273 273 274 276 277 278 279 280 281 282 280 279 279 280 280 282 286 288 288 287 289 291 291 287 287 288 289 287 285 287 291 293 292 292 294 297 298 295 292 292 294 294 294 293 293 294 294 295 298 300 301 300 299 298 296 294 293 292 293 293 295 296 299 300 302 304 306 309 311 314 316 319 321 324 327 329 331 333 334 332
271 271 272 274 275 275 275 275 277 278 277 277 277 279 282 285 284 280 278 277 278 280 283 284 284 285 287 289 289 288 290 291 290 288 286 287 288 287 287 289 293 297 297 294 292 293 294 294 294 294 294 294 293 295 298 300 299 299 298 296 294 292 291 291 291 292 294 297 299 301 302 305 307 310 313 315 318 321 324 327 329 331 333 333 333 332
270 270 271 271 272 273 275 277 278 278 278 278 278 278 281 286 287 284 283 281 280 280 280 280 282 285 287 286 287 288 289 290 289 288 286 286 284 284 285 288 293 296 295 293 292 294 294 294 295 295 294 294 294 296 298 298 297 296 295 293 292 290 290 290 291 292 295 297 299 301 303 306 309 312 314 317 319 323 326 330 332 333 333 332 332 331
Height
5832 5831 5831 5828 5826 5825 5824 5822 5821 5819 5817 5815 5814 5813 5811 5810 5809 5809 5805 5802 5799 5795 5797 5797 5791 5793 5797 5798 5797 5793 5789 5788 5787 5785 5782 5780 5778 5777 5776 5773 5770 5768 5766 5764 5763 5762 5760 5759 5757 5756 5754 5752 5750 5748 5746 5744 5742 5740 5738 5736 5733 5731 5729 5727 5725 5723 5720 5717 5715 5712 5708 5704 5701 5697 5694 5690 5687 5684 5680 5677 5674 5671 5667 5663 5659 5656
5828 5828 5828 5824 5822 5822 5820 5819 5818 5815 5813 5811 5810 5808 5808 5806 5804 5803 5801 5798 5795 5790 5791 5792 5786 5788 5792 5792 5794 5790 5787 5785 5783 5781 5778 5775 5774 5773 5771 5769 5766 5763 5761 5759 5758 5756 5755 5753 5751 5750 5748 5746 5744 5742 5740 5737 5736 5734 5732 5729 5727 5725 5722 5720 5719 5716 5714 5711 5708 5705 5701 5698 5694 5691 5687 5683 5680 5677 5673 5669 5666 5662 5658 5654 5650 5645
5824 5825 5825 5821 5819 5819 5817 5815 5814 5811 5809 5807 5806 5804 5803 5803 5798 5797 5797 5794 5791 5786 5785 5785 5781 5783 5787 5788 5790 5786 5783 5782 5780 5777 5774 5771 5771 5769 5767 5764 5761 5759 5756 5754 5753 5751 5749 5747 5745 5743 5741 5739 5737 5735 5733 5731 5729 5727 5725 5723 5721 5718 5716 5715 5712 5710 5707 5705 5702 5698 5695 5691 5688 5684 5681 5677 5674 5671 5666 5662 5659 5655 5650 5645 5640 5635
5820 5821 5820 5818 5816 5814 5812 5812 5810 5807 5804 5803 5801 5800 5799 5798 5793 5791 5791 5789 5787 5783 5780 5779 5775 5776 5780 5783 5786 5783 5777 5778 5776 5773 5770 5768 5767 5765 5763 5760 5757 5754 5751 5749 5747 5745 5743 5741 5738 5736 5735 5733 5731 5729 5727 5725 5723 5721 5719 5717 5715 5712 5711 5708 5706 5703 5700 5697 5694 5691 5687 5684 5681 5677 5674 5671 5667 5664 5660 5655 5651 5646 5642 5637 5631 5625
5816 5817 5816 5814 5812 5810 5808 5807 5806 5802 5799 5798 5798 5796 5793 5792 5789 5786 5785 5783 5781 5779 5776 5773 5769 5767 5769 5775 5782 5781 5774 5772 5769 5766 5765 5765 5763 5761 5759 5756 5752 5749 5747 5744 5742 5739 5737 5734 5732 5730 5728 5726 5725 5723 5721 5719 5717 5715 5713 5711 5709 5707 5704 5702 5699 5696 5693 5690 5687 5683 5679 5676 5673 5669 5666 5663 5659 5655 5652 5648 5643 5638 5632 5628 5622 5617
5812 5813 5810 5809 5807 5805 5804 5803 5802 5797 5793 5792 5794 5793 5788 5785 5785 5782 5780 5777 5774 5773 5771 5769 5767 5760 5756 5763 5773 5774 5771 5769 5764 5759 5759 5759 5758 5756 5754 5750 5747 5744 5741 5738 5736 5733 5731 5728 5726 5724 5723 5721 5719 5717 5715 5713 5711 5709 5708 5706 5703 5701 5698 5695 5692 5689 5686 5683 5679 5676 5672 5669 5665 5662 5658 5655 5652 5648 5645 5640 5634 5628 5621 5616 5611 5606
5808 5809 5805 5804 5802 5800 5799 5799 5798 5793 5787 5786 5789 5789 5784 5781 5780 5777 5775 5773 5769 5768 5764 5764 5767 5754 5743 5753 5764 5765 5764 5765 5761 5755 5753 5753 5752 5750 5747 5743 5740 5737 5734 5731 5729 5726 5724 5722 5720 5718 5717 5715 5713 5711 5709 5708 5706 5703 5701 5700 5697 5694 5691 5688 5684 5682 5678 5675 5672 5668 5665 5662 5659 5656 5652 5649 5645 5641 5638 5632 5626 5619 5611 5604 5600 5595
5803 5802 5800 5799 5797 5795 5795 5794 5792 5788 5784 5781 5782 5782 5779 5777 5775 5772 5771 5768 5766 5763 5757 5761 5766 5751 5736 5743 5754 5756 5757 5758 5755 5751 5750 5749 5746 5743 5740 5736 5732 5730 5727 5725 5722 5719 5717 5715 5714 5713 5711 5710 5707 5705 5704 5702 5700 5697 5695 5693 5690 5686 5683 5680 5677 5674 5671 5667 5664 5661 5657 5654 5651 5649 5646 5642 5638 5633 5629 5623 5616 5609 5602 5595 5589 5585
5798 5796 5795 5794 5792 5791 5791 5789 5786 5784 5780 5777 5776 5774 5773 5772 5769 5767 5765 5763 5762 5756 5752 5758 5761 5748 5735 5738 5745 5747 5749 5750 5747 5745 5744 5743 5740 5737 5734 5728 5725 5724 5721 5718 5715 5713 5711 5709 5708 5707 5705 5704 5701 5700 5698 5696 5693 5691 5688 5685 5682 5679 5675 5673 5669 5666 5663 5660 5657 5653 5650 5647 5643 5641 5638 5634 5629 5624 5618 5612 5605 5599 5592 5586 5580 5574
5792 5790 5789 5788 5787 5786 5785 5783 5781 5779 5776 5773 5771 5768 5767 5765 5763 5762 5759 5758 5756 5748 5748 5755 5753 5742 5732 5734 5740 5741 5741 5741 5739 5738 5737 5736 5734 5730 5726 5721 5719 5717 5715 5712 5709 5706 5705 5703 5702 5701 5699 5697 5695 5693 5691 5689 5687 5684 5681 5677 5674 5671 5668 5665 5662 5658 5655 5652 5649 5646 5643 5640 5637 5633 5630 5625 5620 5613 5606 5600 5594 5588 5582 5577 5571 5565
5786 5784 5783 5782 5781 5780 5779 5777 5776 5774 5771 5768 5766 5763 5761 5758 5757 5756 5753 5753 5749 5743 5746 5749 5745 5737 5726 5727 5736 5737 5734 5734 5732 5731 5730 5729 5727 5723 5719 5715 5713 5711 5708 5705 5702 5700 5698 5697 5695 5693 5691 5690 5688 5686 5684 5681 5679 5676 5673 5669 5666 5663 5660 5657 5654 5651 5648 5644 5641 5638 5635 5632 5629 5625 5621 5616 5609 5602 5595 5590 5584 5578 5573 5567 5561 5556
5780 5778 5777 5776 5775 5774 5773 5771 5769 5767 5765 5763 5760 5757 5755 5752 5751 5749 5746 5746 5742 5738 5742 5741 5737 5730 5720 5723 5732 5731 5728 5727 5725 5725 5724 5723 5721 5717 5713 5710 5708 5705 5702 5699 5696 5694 5692 5689 5688 5686 5684 5683 5680 5678 5676 5673 5671 5669 5666 5662 5658 5656 5653 5650 5647 5643 5640 5637 5634 5631 5627 5624 5620 5616 5611 5605 5598 5592 5586 5580 5575 5569 5563 5558 5552 5546
5772 5772 5771 5769 5769 5768 5766 5764 5763 5761 5759 5756 5754 5752 5750 5747 5745 5742 5740 5739 5737 5736 5737 5734 5729 5721 5715 5722 5727 5724 5723 5722 5720 5720 5718 5717 5715 5710 5707 5705 5702 5699 5695 5692 5690 5687 5685 5683 5681 5679 5677 5676 5673 5671 5668 5666 5664 5661 5658 5655 5651 5648 5645 5642 5639 5636 5633 5630 5626 5623 5619 5615 5611 5606 5599 5593 5587 5581 5576 5571 5565 5560 5554 5548 5543 5537
5764 5764 5764 5763 5762 5761 5759 5757 5756 5754 5752 5749 5747 5746 5744 5742 5739 5735 5733 5731 5730 5732 5729 5725 5721 5714 5712 5718 5719 5716 5717 5716 5716 5714 5712 5711 5708 5702 5701 5698 5695 5692 5689 5686 5684 5681 5679 5677 5675 5673 5671 5669 5666 5664 5661 5659 5657 5654 5651 5648 5644 5641 5638 5634 5631 5628 5625 5621 5618 5614 5610 5606 5601 5595 5588 5582 5576 5571 5566 5560 5555 5549 5544 5538 5533 5528
5756 5755 5756 5756 5755 5754 5753 5752 5750 5747 5745 5742 5742 5740 5738 5738 5734 5729 5729 5726 5725 5727 5721 5715 5713 5709 5709 5710 5708 5709 5711 5709 5709 5708 5706 5705 5700 5695 5693 5690 5687 5685 5682 5681 5679 5676 5674 5672 5670 5667 5665 5662 5659 5657 5654 5652 5649 5646 5643 5640 5637 5634 5630 5627 5624 5621 5617 5613 5609 5605 5600 5595 5590 5584 5578 5572 5566 5561 5556 5551 5545 5539 5533 5528 5523 5518
5748 5747 5749 5747 5746 5747 5746 5745 5743 5740 5738 5736 5736 5734 5732 5732 5728 5723 5723 5723 5721 5719 5714 5707 5704 5705 5705 5702 5700 5702 5704 5704 5703 5701 5700 5698 5693 5689 5686 5683 5681 5679 5677 5675 5673 5671 5668 5666 5664 5661 5658 5655 5652 5649 5647 5644 5641 5638 5636 5633 5630 5626 5623 5620 5617 5613 5609 5605 5600 5595 5590 5585 5579 5573 5568 5561 5555 5550 5546 5541 5536 5530 5524 5518 5513 5508
5742 5740 5741 5739 5738 5739 5737 5737 5736 5732 5730 5730 5730 5729 5726 5724 5721 5717 5716 5718 5716 5710 5707 5703 5697 5697 5698 5694 5694 5696 5696 5698 5697 5694 5693 5690 5686 5683 5679 5676 5675 5673 5671 5669 5666 5664 5662 5659 5657 5654 5652 5648 5645 5642 5639 5637 5634 5631 5628 5625 5622 5619 5616 5613 5609 5605 5601 5596 5591 5585 5580 5574 5569 5563 5557 5551 5546 5541 5536 5531 5525 5520 5514 5508 5502 5498
5735 5734 5735 5734 5731 5732 5731 5728 5726 5723 5722 5722 5723 5722 5719 5715 5714 5713 5710 5710 5708 5700 5699 5699 5693 5690 5688 5687 5691 5691 5689 5690 5689 5686 5685 5682 5678 5675 5672 5670 5669 5666 5665 5663 5660 5658 5655 5653 5651 5648 5645 5642 5638 5635 5632 5629 5627 5624 5621 5618 5615 5612 5609 5606 5602 5598 5593 5588 5582 5576 5570 5565 5558 5552 5546 5541 5537 5532 5527 5522 5515 5510 5504 5498 5492 5487
5727 5725 5728 5729 5726 5725 5725 5720 5717 5717 5716 5715 5714 5712 5710 5708 5709 5708 5704 5701 5698 5693 5691 5692 5690 5682 5678 5682 5687 5686 5684 5683 5680 5679 5677 5674 5671 5667 5665 5664 5661 5660 5658 5656 5654 5651 5649 5647 5644 5641 5637 5634 5631 5627 5625 5622 5619 5617 5614 5611 5608 5605 5602 5598 5594 5589 5584 5579 5573 5567 5561 5555 5549 5542 5536 5531 5527 5523 5518 5512 5506 5500 5494 5488 5482 5476
5719 5715 5718 5723 5721 5719 5717 5714 5713 5713 5710 5706 5704 5703 5702 5702 5702 5700 5697 5693 5690 5687 5683 5683 5683 5676 5670 5677 5682 5681 5680 5675 5672 5673 5670 5667 5664 5660 5658 5657 5654 5653 5652 5649 5647 5645 5643 5640 5636 5633 5630 5627 5624 5620 5617 5614 5612 5610 5607 5604 5601 5598 5594 5591 5586 5581 5575 5569 5564 5558 5552 5546 5539 5533 5527 5522 5518 5513 5508 5502 5496 5490 5484 5478 5472 5466
5710 5705 5707 5714 5714 5710 5710 5710 5708 5706 5702 5699 5697 5697 5697 5696 5693 5689 5687 5687 5683 5679 5675 5672 5671 5669 5666 5671 5676 5676 5672 5666 5663 5664 5662 5659 5657 5653 5651 5649 5647 5646 5644 5642 5640 5637 5635 5632 5629 5626 5622 5619 5616 5612 5610 5607 5605 5602 5600 5597 5594 5590 5586 5582 5577 5572 5567 5561 5555 5549 5543 5536 5530 5523 5518 5513 5508 5503 5498 5492 5486 5480 5475 5469 5463 5457
5702 5698 5698 5702 5703 5702 5703 5702 5698 5695 5694 5692 5691 5693 5693 5691 5686 5680 5677 5680 5677 5671 5667 5662 5658 5660 5663 5667 5671 5670 5665 5658 5656 5656 5654 5652 5649 5645 5644 5642 5640 5639 5637 5634 5633 5630 5627 5625 5621 5618 5615 5611 5608 5605 5602 5600 5597 5595 5592 5589 5585 5582 5577 5573 5568 5563 5558 5552 5546 5540 5533 5527 5521 5514 5509 5504 5499 5493 5488 5482 5476 5470 5465 5460 5453 5447
5695 5691 5689 5691 5693 5694 5693 5691 5689 5687 5686 5684 5685 5688 5687 5683 5680 5674 5669 5671 5669 5664 5660 5652 5645 5650 5659 5663 5664 5662 5657 5654 5651 5649 5647 5645 5641 5639 5637 5635 5634 5632 5629 5627 5625 5622 5619 5616 5614 5610 5607 5604 5601 5598 5596 5593 5590 5587 5584 5581 5576 5572 5568 5563 5559 5554 5548 5542 5536 5531 5524 5518 5511 5506 5500 5496 5490 5484 5478 5472 5467 5461 5455 5450 5444 5437
5686 5682 5681 5682 5683 5683 5681 5681 5680 5678 5677 5677 5679 5681 5677 5674 5674 5669 5661 5660 5658 5656 5653 5645 5636 5642 5654 5658 5654 5651 5649 5648 5645 5641 5640 5637 5634 5633 5630 5628 5627 5624 5622 5620 5616 5614 5611 5608 5606 5603 5599 5597 5594 5591 5589 5585 5583 5580 5576 5572 5567 5563 5559 5554 5550 5544 5539 5533 5527 5521 5515 5509 5503 5497 5492 5487 5481 5476 5470 5464 5458 5452 5446 5440 5434 5428
5676 5675 5675 5673 5671 5671 5670 5671 5671 5671 5670 5670 5672 5671 5668 5668 5667 5661 5654 5649 5645 5644 5645 5637 5629 5636 5648 5649 5643 5641 5640 5639 5638 5634 5631 5629 5627 5625 5623 5621 5619 5616 5614 5612 5608 5606 5603 5601 5599 5595 5592 5589 5586 5584 5581 5578 5575 5571 5567 5563 5558 5554 5549 5545 5540 5535 5529 5524 5518 5512 5506 5500 5494 5489 5484 5479 5473 5467 5462 5455 5449 5443 5436 5431 5425 5418
5666 5666 5666 5663 5659 5659 5660 5662 5664 5665 5662 5659 5661 5662 5662 5662 5659 5653 5647 5638 5631 5634 5635 5629 5622 5628 5640 5640 5633 5633 5632 5629 5629 5627 5622 5621 5619 5618 5616 5613 5611 5609 5607 5604 5601 5598 5596 5593 5591 5588 5584 5582 5579 5576 5572 5569 5566 5562 5558 5554 5549 5545 5540 5535 5531 5525 5520 5515 5509 5503 5497 5491 5486 5481 5476 5471 5465 5460 5454 5447 5440 5434 5428 5421 5415 5409
5654 5653 5653 5652 5649 5649 5652 5655 5656 5654 5650 5649 5651 5654 5655 5654 5652 5648 5638 5625 5623 5626 5622 5622 5620 5616 5625 5632 5626 5624 5624 5620 5620 5618 5614 5613 5612 5610 5608 5605 5603 5602 5599 5596 5593 5590 5588 5585 5582 5580 5577 5574 5570 5567 5563 5560 5557 5553 5549 5545 5541 5536 5532 5526 5521 5516 5511 5505 5500 5494 5488 5483 5477 5473 5468 5463 5457 5451 5445 5438 5431 5425 5419 5412 5405 5399
5642 5639 5642 5642 5639 5640 5644 5647 5646 5642 5640 5641 5642 5644 5646 5645 5643 5639 5627 5620 5624 5617 5605 5614 5620 5607 5611 5622 5618 5615 5616 5611 5610 5608 5606 5606 5606 5602 5600 5597 5595 5594 5591 5588 5585 5582 5580 5577 5574 5572 5568 5565 5562 5558 5555 5551 5548 5545 5541 5537 5533 5528 5523 5518 5512 5507 5501 5496 5490 5485 5480 5474 5469 5464 5459 5454 5449 5442 5435 5429 5422 5416 5409 5403 5396 5389
5630 5628 5635 5636 5629 5631 5636 5637 5635 5631 5630 5632 5633 5635 5638 5636 5632 5626 5619 5621 5623 5608 5595 5606 5612 5602 5603 5611 5610 5609 5606 5600 5600 5600 5598 5599 5598 5594 5592 5589 5587 5586 5582 5580 5577 5574 5572 5569 5566 5563 5560 5556 5553 5549 5547 5543 5540 5536 5532 5528 5524 5519 5514 5509 5503 5498 5492 5487 5482 5477 5471 5466 5461 5455 5451 5446 5440 5434 5427 5420 5414 5407 5400 5393 5387 5380
5621 5619 5628 5628 5619 5621 5627 5627 5624 5620 5619 5620 5623 5628 5629 5624 5620 5618 5616 5619 5616 5600 5593 5600 5599 5595 5601 5603 5600 5601 5597 5591 5591 5593 5591 5590 5588 5585 5584 5581 5579 5577 5574 5572 5569 5566 5564 5561 5558 5555 5551 5548 5544 5541 5538 5535 5532 5528 5523 5519 5515 5511 5505 5500 5495 5489 5483 5478 5474 5469 5463 5458 5452 5447 5442 5437 5431 5425 5419 5412 5406 5399 5393 5385 5378 5371
5613 5612 5619 5619 5608 5609 5620 5620 5614 5611 5608 5606 5612 5619 5618 5611 5611 5614 5614 5611 5603 5592 5592 5595 5587 5587 5599 5601 5592 5589 5588 5584 5584 5584 5583 5581 5579 5577 5576 5573 5571 5569 5566 5564 5562 5559 5556 5554 5551 5547 5543 5539 5536 5533 5530 5527 5523 5519 5515 5511 5506 5501 5497 5491 5486 5480 5475 5470 5465 5460 5455 5450 5444 5439 5434 5429 5423 5417 5410 5404 5398 5392 5385 5377 5370 5362
5608 5604 5610 5609 5596 5596 5611 5610 5602 5602 5598 5594 5600 5609 5610 5606 5606 5608 5605 5598 5592 5588 5587 5586 5579 5580 5592 5594 5584 5580 5580 5578 5576 5576 5575 5573 5571 5569 5567 5565 5562 5560 5559 5557 5554 5551 5549 5546 5543 5539 5535 5531 5527 5525 5522 5518 5515 5511 5507 5502 5497 5492 5487 5482 5477 5472 5467 5462 5457 5452 5447 5442 5437 5432 5426 5421 5415 5409 5403 5396 5390 5384 5377 5369 5361 5353
5603 5598 5600 5599 5586 5586 5599 5597 5591 5591 5583 5580 5593 5604 5606 5603 5597 5593 5590 5588 5587 5584 5578 5575 5573 5576 5581 5580 5575 5575 5575 5571 5569 5569 5567 5564 5563 5561 5558 5557 5555 5553 5552 5549 5546 5544 5541 5537 5534 5530 5526 5522 5519 5516 5513 5509 5506 5502 5497 5493 5488 5483 5478 5473 5469 5464 5458 5454 5449 5444 5439 5434 5429 5424 5419 5413 5408 5401 5395 5388 5382 5375 5368 5361 5352 5344
5595 5592 5591 5589 5579 5576 5583 5585 5579 5572 5566 5574 5592 5600 5597 5594 5588 5579 5578 5583 5584 5578 5570 5567 5567 5569 5571 5568 5566 5566 5566 5563 5562 5562 5560 5557 5555 5553 5551 5549 5548 5546 5544 5541 5539 5536 5532 5528 5525 5521 5517 5513 5510 5507 5503 5500 5497 5492 5488 5484 5479 5474 5469 5465 5460 5455 5450 5446 5441 5437 5432 5426 5421 5416 5411 5406 5400 5393 5387 5380 5374 5367 5360 5352 5344 5335
5586 5585 5581 5579 5573 5565 5568 5571 5559 5550 5560 5577 5587 5589 5587 5584 5578 5571 5570 5577 5578 5572 5565 5560 5560 5562 5562 5559 5558 5556 5553 5555 5556 5555 5553 5550 5546 5544 5543 5543 5542 5539 5536 5533 5530 5527 5523 5520 5516 5512 5508 5504 5501 5497 5494 5491 5488 5483 5478 5474 5470 5465 5461 5457 5452 5447 5442 5438 5433 5429 5424 5419 5414 5409 5403 5398 5392 5385 5379 5373 5366 5360 5352 5344 5335 5326
5578 5575 5571 5569 5564 5555 5553 5552 5542 5540 5558 5572 5576 5582 5582 5574 5568 5564 5561 5565 5570 5567 5559 5553 5553 5557 5555 5551 5550 5545 5541 5544 5548 5548 5546 5540 5537 5537 5536 5536 5534 5530 5528 5525 5521 5518 5515 5511 5507 5503 5499 5495 5492 5489 5485 5482 5478 5474 5469 5465 5461 5457 5454 5449 5444 5439 5434 5430 5425 5421 5416 5412 5407 5401 5396 5390 5385 5378 5372 5366 5359 5353 5345 5337 5327 5317
5569 5565 5562 5557 5552 5547 5542 5537 5533 5533 5542 5558 5573 5582 5576 5564 5559 5556 5546 5549 5563 5565 5553 5546 5548 5550 5547 5543 5540 5535 5533 5534 5538 5542 5538 5530 5528 5530 5529 5528 5525 5521 5519 5516 5512 5510 5507 5502 5499 5495 5491 5487 5483 5480 5477 5473 5469 5465 5461 5457 5453 5449 5446 5441 5437 5432 5427 5422 5417 5413 5409 5404 5399 5394 5388 5383 5378 5372 5365 5359 5352 5346 5338 5330 5320 5310
5561 5556 5554 5546 5540 5541 5535 5527 5524 5520 5524 5549 5571 5575 5567 5556 5553 5548 5533 5533 5554 5561 5549 5543 5544 5541 5537 5533 5528 5527 5527 5525 5528 5534 5530 5521 5520 5523 5521 5519 5516 5513 5511 5508 5504 5502 5498 5494 5491 5487 5483 5479 5475 5471 5468 5464 5460 5456 5452 5449 5445 5442 5438 5434 5429 5424 5419 5414 5410 5405 5401 5396 5392 5387 5381 5375 5370 5365 5358 5352 5345 5338 5330 5321 5312 5302
5551 5547 5547 5538 5530 5533 5528 5517 5514 5510 5517 5543 5560 5560 5556 5549 5545 5540 5523 5521 5543 5553 5545 5543 5539 5529 5524 5522 5518 5519 5519 5517 5520 5525 5520 5513 5514 5515 5512 5510 5508 5504 5502 5499 5496 5493 5489 5486 5482 5478 5475 5471 5467 5464 5460 5456 5452 5449 5444 5441 5437 5434 5430 5425 5421 5416 5411 5406 5401 5397 5393 5389 5384 5379 5374 5368 5362 5357 5351 5345 5338 5331 5323 5313 5303 5293
5542 5540 5538 5528 5522 5526 5521 5510 5506 5504 5513 5536 5547 5544 5542 5539 5537 5529 5514 5518 5540 5543 5535 5534 5529 5519 5515 5512 5510 5511 5510 5509 5512 5513 5510 5506 5506 5505 5503 5501 5499 5496 5493 5490 5487 5484 5481 5477 5474 5470 5466 5462 5459 5456 5452 5448 5444 5441 5437 5434 5430 5426 5421 5416 5412 5408 5403 5398 5393 5389 5385 5382 5377 5372 5367 5361 5355 5349 5343 5337 5331 5324 5316 5307 5296 5285
5532 5532 5528 5520 5518 5520 5515 5505 5500 5499 5511 5531 5536 5532 5530 5526 5523 5516 5511 5523 5535 5528 5520 5522 5519 5513 5509 5503 5502 5504 5503 5502 5503 5502 5500 5499 5497 5495 5494 5491 5489 5487 5484 5480 5478 5475 5472 5469 5466 5462 5458 5454 5451 5448 5444 5440 5437 5433 5429 5426 5422 5417 5413 5408 5404 5400 5395 5390 5386 5381 5378 5374 5369 5365 5360 5354 5348 5342 5336 5330 5324 5317 5309 5301 5290 5278
5522 5520 5516 5513 5512 5511 5508 5502 5492 5492 5512 5528 5524 5518 5519 5514 5508 5509 5514 5520 5519 5512 5511 5513 5510 5506 5501 5496 5497 5499 5496 5495 5494 5491 5491 5489 5487 5486 5484 5481 5480 5477 5474 5471 5469 5466 5464 5461 5457 5454 5450 5447 5443 5440 5437 5433 5429 5426 5422 5418 5414 5409 5405 5400 5396 5392 5387 5382 5378 5374 5370 5366 5362 5358 5353 5347 5341 5335 5329 5323 5317 5310 5302 5294 5284 5272
5512 5508 5502 5503 5506 5503 5498 5494 5487 5490 5510 5523 5513 5505 5506 5505 5504 5508 5508 5506 5506 5505 5504 5502 5500 5498 5492 5489 5492 5491 5488 5487 5485 5482 5481 5480 5478 5477 5474 5472 5471 5467 5465 5463 5460 5458 5456 5452 5449 5446 5442 5439 5436 5432 5429 5425 5421 5418 5414 5409 5406 5401 5397 5393 5388 5384 5380 5375 5370 5367 5363 5359 5355 5351 5346 5340 5334 5327 5322 5317 5311 5304 5296 5287 5278 5267
5495 5496 5494 5496 5499 5494 5485 5483 5486 5493 5504 5509 5505 5500 5498 5499 5504 5505 5498 5495 5499 5499 5494 5491 5491 5489 5484 5482 5483 5482 5479 5479 5477 5474 5473 5471 5469 5467 5465 5463 5462 5458 5456 5455 5451 5450 5448 5444 5441 5438 5434 5431 5428 5424 5420 5417 5413 5410 5406 5402 5398 5393 5389 5385 5381 5376 5372 5367 5363 5360 5356 5352 5348 5344 5339 5334 5327 5321 5315 5310 5305 5298 5289 5280 5271 5260
5482 5491 5492 5487 5482 5480 5476 5477 5484 5491 5494 5495 5497 5497 5494 5493 5497 5498 5492 5490 5492 5489 5485 5484 5482 5480 5478 5474 5473 5472 5472 5471 5469 5467 5465 5463 5460 5458 5455 5454 5452 5450 5448 5446 5443 5442 5439 5436 5433 5430 5426 5423 5420 5415 5412 5409 5405 5401 5398 5394 5390 5386 5381 5378 5373 5369 5364 5360 5357 5353 5349 5345 5341 5336 5332 5326 5320 5314 5308 5302 5298 5291 5283 5274 5264 5253
5477 5485 5482 5473 5467 5466 5466 5470 5480 5487 5486 5486 5488 5491 5491 5488 5488 5489 5487 5484 5483 5480 5478 5477 5475 5474 5472 5468 5466 5466 5465 5463 5462 5459 5456 5454 5451 5448 5446 5445 5443 5441 5439 5437 5435 5433 5430 5427 5425 5421 5418 5415 5411 5407 5404 5400 5397 5394 5390 5386 5382 5378 5374 5370 5366 5361 5357 5354 5350 5347 5342 5338 5333 5329 5324 5319 5313 5306 5300 5294 5289 5283 5276 5267 5257 5246
5466 5472 5467 5462 5459 5454 5451 5461 5478 5482 5478 5479 5481 5482 5485 5484 5481 5481 5479 5476 5474 5471 5468 5469 5469 5466 5464 5462 5461 5460 5457 5456 5454 5450 5448 5446 5443 5440 5438 5436 5434 5432 5430 5428 5427 5425 5422 5419 5416 5413 5410 5407 5403 5399 5396 5392 5389 5385 5382 5378 5374 5370 5366 5362 5358 5354 5351 5347 5344 5341 5336 5332 5327 5322 5317 5312 5306 5300 5293 5286 5280 5274 5268 5259 5250 5240
5453 5457 5450 5445 5445 5442 5442 5456 5471 5471 5467 5471 5473 5473 5478 5479 5476 5474 5471 5468 5465 5462 5459 5460 5460 5457 5455 5455 5454 5452 5450 5449 5447 5443 5441 5438 5435 5431 5429 5426 5424 5423 5421 5419 5418 5416 5413 5411 5408 5405 5402 5398 5394 5391 5387 5384 5381 5377 5373 5370 5366 5362 5359 5355 5351 5347 5344 5341 5338 5335 5331 5326 5322 5316 5310 5304 5299 5294 5288 5281 5273 5266 5259 5251 5241 5233
5440 5437 5432 5433 5432 5429 5433 5449 5463 5461 5457 5460 5462 5462 5465 5468 5466 5463 5460 5457 5455 5453 5451 5451 5449 5446 5446 5445 5443 5441 5440 5439 5437 5434 5431 5430 5427 5423 5420 5417 5415 5413 5412 5410 5409 5406 5404 5402 5399 5396 5393 5389 5386 5383 5379 5376 5373 5368 5365 5361 5358 5355 5352 5348 5345 5341 5338 5335 5332 5328 5325 5321 5316 5312 5305 5298 5291 5285 5280 5275 5267 5259 5250 5241 5233 5225
5425 5421 5424 5427 5420 5415 5423 5442 5453 5448 5441 5446 5454 5453 5451 5452 5451 5448 5447 5446 5445 5444 5442 5440 5437 5436 5436 5436 5433 5431 5429 5429 5428 5425 5422 5421 5418 5413 5410 5408 5406 5404 5403 5401 5399 5397 5395 5393 5390 5388 5384 5381 5378 5375 5371 5368 5364 5360 5357 5353 5350 5348 5344 5341 5338 5335 5332 5329 5326 5322 5319 5315 5310 5306 5301 5295 5287 5278 5270 5263 5257 5250 5242 5233 5226 5218
5410 5412 5418 5417 5408 5407 5419 5433 5438 5432 5427 5434 5444 5444 5440 5438 5435 5433 5433 5435 5435 5434 5431 5428 5426 5426 5426 5426 5424 5421 5420 5421 5419 5415 5413 5411 5407 5404 5402 5399 5397 5395 5394 5392 5390 5388 5386 5384 5381 5379 5376 5373 5370 5366 5363 5359 5356 5352 5349 5345 5342 5340 5337 5334 5331 5328 5326 5323 5320 5317 5314 5310 5305 5301 5296 5290 5284 5277 5268 5258 5249 5241 5232 5225 5220 5214